Regional Weather Roundup
Issued by NWS Charleston, SC

Current Version | Previous Version | Graphics & Text | Print | Product List | Glossary On
Versions: 1 2 3 4 5 6 7 8 9 10 11 12 13 14 15 16 17 18 19 20 21 22 23 24 25 26 27 28 29 30 31 32 33 34 35 36 37 38 39 40 41 42 43 44 45 46 47 48 49 50
000
ASUS42 KCHS 060513
RWRCHS

REGIONAL WEATHER ROUNDUP
NATIONAL WEATHER SERVICE CHARLESTON SC
100 AM EDT FRI MAY 06 2016

NOTE: "FAIR" INDICATES FEW OR NO CLOUDS BELOW 12,000 FEET WITH NO
SIGNIFICANT WEATHER AND/OR OBSTRUCTIONS TO VISIBILITY.

NOT ALL STATIONS ARE QUALITY CONTROLLED. USE DATA WITH CAUTION...
ESPECIALLY DEWPOINT OBSERVATIONS.

SCZ027-030-031-034>040-042>050-060600-
...SOUTHEAST SOUTH CAROLINA...

CITY           SKY/WX    TMP DP  RH WIND       PRES   REMARKS
N CHARLESTON   CLEAR     54  42  64 NW9       29.76R
WATERFRONT PRK   N/A     58  43  57 W7        29.74S
MOUNT PLEASANT FAIR      57  45  62 NW9       29.76R
JOHNS ISLAND   FAIR      54  45  71 W5        29.76R
PINOPOLIS        N/A     57  50  77 N20       29.67S
MONCKS CORNER  FAIR      54  43  66 N9        29.76S
SUMMERVILLE    FAIR      50  45  81 CALM      29.78R
BEAUFORT MCAS  CLEAR     55  44  66 W10       29.78S
BEAUFORT ARPT  FAIR      55  43  62 W8G17     29.78R
HILTON HEAD IS CLEAR     57  43  58 W8G16     29.80R
WALTERBORO     CLEAR     52  45  76 NW3       29.79R
ALLENDALE      FAIR      52  46  82 CALM      29.78R

...SOUTHERN MIDLANDS AND PEE DEE...

CITY           SKY/WX    TMP DP  RH WIND       PRES   REMARKS
GEORGETOWN     FAIR      50  46  87 NW7       29.76R
KINGSTREE      FAIR      50  45  81 W3        29.76S
ORANGEBURG     PTCLDY    52  44  74 N5        29.78S
BARNWELL       FAIR      52  48  87 NW6       29.80R
AIKEN          FAIR      48  43  81 W3        29.83R
MANNING        FAIR      46  45  93 CALM      29.77R
COLUMBIA       MOCLDY    53  45  74 NW9       29.78R
SUMTER         MOCLDY    51  46  84 NW7       29.74S
FLORENCE       MOCLDY    51  44  77 NW6       29.75R
MYRTLE BEACH   CLOUDY    54  43  66 NW9       29.75S
N MYRTLE BEACH PTCLDY    52  48  86 NW5       29.72S

$$

GAZ063-065-086>088-099>101-113>116-118-119-134>141-150-060600-
...SOUTHEAST GEORGIA...

CITY           SKY/WX    TMP DP  RH WIND       PRES   REMARKS
SAVANNAH ARPT  CLEAR     53  43  68 W7        29.81R
HUNTER AAF     CLEAR     55  44  66 W9        29.78R
FORT STEWART   CLEAR     55  43  63 W7        29.80R
STATESBORO     CLEAR     56  49  79 NW10      29.82R
SYLVANIA       CLEAR     54  48  79 NW8       29.81R
CLAXTON        FAIR      52  48  84 W5        29.83R

...CSRA...CENTRAL AND FAR SOUTHEAST GEORGIA...

CITY           SKY/WX    TMP DP  RH WIND       PRES   REMARKS
THOMSON        CLEAR     48  47  95 W3        29.86S
AUGUSTA-BUSH   CLEAR     52  43  71 NW8       29.80R
AUGUSTA-DANIEL CLEAR     53  42  66 NW7       29.81R
SWAINSBORO     FAIR      52  45  76 NW9       29.84R
VIDALIA        CLEAR     54  45  71 NW7       29.84R
EASTMAN        FAIR      53  41  63 NW6       29.89R
HAZLEHURST     FAIR      54  46  76 CALM      29.84R
ALMA           CLEAR     53  44  71 NW5       29.85R
WAYCROSS       CLEAR     53  44  73 NW5       29.85R
JESUP          FAIR      55  46  71 NW3       29.84R
BAXLEY         FAIR      55  45  67 NW7       29.84R
BRUNSWICK      PTCLDY    59  50  72 W3        29.84R
SAINT SIMONS   PTCLDY    57  45  64 W5        29.83R

$$

SCZ027-028-034-036>038-045-046-048>050-GAZ119-141-060600-
...LAKE AND SUPPLEMENTAL COASTAL OBSERVATIONS...

STATION/POSITION TIME  TEMP    WIND        PRES    WAVE   SWELL
                       AIR SEA DIR/SP/G            HT/PER HT/PER/DIR
                 (UTC) (F)     (DEG/KT/KT) (MB)    (FT/S) (FT/S/D)
WINYAH BAY       0345   55     300/  5     1006.0
LAKE MURRAY      0400   52     340/  2/  8 1008.5R
ACE BASIN NERRS  NOT AVBL
FORT PULASKI     0400   61 72  290/ 17/ 21 1008.8R
SAPELO ISLAND    0400   60     310/  5     1009.0S

$$

ANZ835-935-AMZ111-154-330-350-352-354-370-450-454-472-060600-
...C-MAN AND BUOY OBSERVATIONS...

STATION/POSITION TIME  TEMP    WIND        PRES    WAVE   SWELL
                       AIR SEA DIR/SP/G            HT/PER HT/PER/DIR
                 (UTC) (F)     (DEG/KT/KT) (MB)    (FT/S) (FT/S/D)
BUOY 41004       0450   64 73  290/ 14/ 17 1006.5R   6/ 7   3/ 7
BUOY 41008       NOT AVBL
FOLLY BEACH CMAN 0500   55     280/  5/  6 1007.9R
CAPERS NEARSHORE 0408   61 70  290/ 14/ 19 1006.7S
FRIPP NEARSHORE  0408   61 70  300/ 19/ 25 1007.4R


STATION/POSITION TIME  TEMP    WIND        PRES    WAVE   SWELL
                       AIR SEA DIR/SP/G            HT/PER HT/PER/DIR
                 (UTC) (F)     (DEG/KT/KT) (MB)    (FT/S) (FT/S/D)
5E ST. MARYS GA  0421      71                N/A     2/ 4
FRYING PAN BUOY  0400   63 72  280/ 17/ 21 1005.3R
BUOY 41025       0450   55 76  350/  8/ 10 1004.0R   4/ 8   3/ 30/ 8
CAPE LOOKOUT NC  0400   56     350/  7/  8 1004.1R
BUOY 41002       0450   72 74  250/ 17/ 21 1005.3S  10/ 9   5/210/ 9
BUOY 41010       0420   74 78  220/  8/ 12 1008.1F
ST AUGUSTINE FL  0500   61 70  280/  6/  7 1011.1R


$$



USA.gov is the U.S. government's official web portal to all federal, state and local government web resources and services.